This is the latest recevied weather packets stored in our database for station/object N8AMF. If no packets are shown the sender has not sent any weather packets the latest 10 day(s).
| Time | Temp. | Humidity | Pressure | Rain* | Wind** | Luminosity | Snow |
|---|---|---|---|---|---|---|---|
| 1777923925 | 23.33° C | 46% | 1003.2 hPa | 0 mm | - | 809 W/m² | - |
| 1777923620 | 23.33° C | 44% | 1003.3 hPa | 0 mm | - | 818 W/m² | - |
| 1777923318 | 23.89° C | 44% | 1003.3 hPa | 0 mm | - | 834 W/m² | - |
| 1777923017 | 23.33° C | 45% | 1003.3 hPa | 0 mm | - | 853 W/m² | - |
| 1777922714 | 23.89° C | 44% | 1003.3 hPa | 0 mm | - | 862 W/m² | - |
| 1777922412 | 23.89° C | 41% | 1003.4 hPa | 0 mm | - | 866 W/m² | - |
| 1777922110 | 23.33° C | 47% | 1003.5 hPa | 0 mm | - | 884 W/m² | - |
| 1777921806 | 22.78° C | 44% | 1003.7 hPa | 0 mm | - | 889 W/m² | - |
| 1777921501 | 22.78° C | 45% | 1003.9 hPa | 0 mm | - | 891 W/m² | - |
| 1777921198 | 23.33° C | 43% | 1004 hPa | 0 mm | - | 914 W/m² | - |
| 1777920895 | 22.78° C | 45% | 1003.7 hPa | 0 mm | - | 908 W/m² | - |
| 1777920591 | 23.33° C | 44% | 1003.9 hPa | 0 mm | - | 930 W/m² | - |
| 1777920287 | 23.33° C | 42% | 1004 hPa | 0 mm | - | 934 W/m² | - |
| 1777919983 | 22.78° C | 44% | 1004.1 hPa | 0 mm | - | 934 W/m² | - |
| 1777919680 | 23.33° C | 42% | 1004.1 hPa | 0 mm | - | 945 W/m² | - |
| 1777919378 | 22.78° C | 44% | 1004.3 hPa | 0 mm | - | 948 W/m² | - |
| 1777919075 | 22.78° C | 42% | 1004.1 hPa | 0 mm | - | 953 W/m² | - |
| 1777918772 | 22.78° C | 40% | 1004.2 hPa | 0 mm | - | 959 W/m² | - |
| 1777918469 | 23.33° C | 41% | 1004.3 hPa | 0 mm | - | 969 W/m² | - |
| 1777918168 | 23.33° C | 41% | 1004.2 hPa | 0 mm | - | 964 W/m² | - |
| 1777917866 | 23.33° C | 41% | 1004.3 hPa | 0 mm | - | 962 W/m² | - |
| 1777917564 | 23.89° C | 43% | 1004.4 hPa | 0 mm | - | 975 W/m² | - |
| 1777917261 | 23.89° C | 41% | 1004.3 hPa | 0 mm | - | 973 W/m² | - |
| 1777916959 | 23.33° C | 42% | 1004.4 hPa | 0 mm | - | 976 W/m² | - |
| 1777916656 | 22.78° C | 47% | 1004.5 hPa | 0 mm | - | 981 W/m² | - |
* Rain latest hour (hover to see other rain measurements)
** Current wind speed in m/s (hover to see current wind gust speed)